Location: Home
(42.5358°N, 72.7383°W)
Time: 09:31:01
(UTC-04:00)

Kosmos-337 - Pass Details

Date: 04 July 2022
Orbit: 1467 x 1552 km, 74.0° (Epoch: 16 August)

Event Time Altitude Azimuth Distance (km) Brightness Sun altitude
Rises 04:16:38 0° 324° (NW) 4,727 ? -9.8°
Reaches altitude 10° 04:21:33 10° 302° (WNW) 3,730 ? -9.2°
Maximum altitude 04:25:35 14° 275° (W) 3,413 ? -8.6°
Drops below altitude 10° 04:29:36 10° 248° (WSW) 3,699 ? -8.1°
Enters shadow 04:30:43 - 241° (WSW) 3,871 ? -7.9°
